Location: Henham
(51.9333°N, 0.2500°E)
Time: 01:48:37
(UTC+00:00)

STARLINK-61 - Pass Details

Date: 23 October 2019
Orbit: 530 x 533 km, 53.0° (Epoch: 12 November)

Event Time Altitude Azimuth Distance (km) Brightness Sun altitude
Rises 19:17:29 0° 287° (WNW) 2,680 8.6 -23.5°
Reaches altitude 10° 19:19:44 10° 284° (WNW) 1,788 7.3 -23.8°
Enters shadow 19:23:22 54° 228° (SW) 655 4.1 -24.4°
